Time,TemperatureF,DewpointF,PressureIn,WindDirection,WindDirectionDegrees,WindSpeedMPH,WindSpeedGustMPH,Humidity,HourlyPrecipIn,Conditions,Clouds,dailyrainin,SoftwareType,DateUTC
2013-11-26 00:01:00,31.0,29.7,30.06,SSW,205,10.0,14.0,95,0.00,,OVC055,0.00,VWS V13.01,2013-11-26 05:01:00,
2013-11-26 00:04:00,30.9,29.4,30.06,SW,221,11.0,13.0,94,0.00,,OVC055,0.00,VWS V13.01,2013-11-26 05:04:00,
2013-11-26 00:09:00,30.8,29.3,30.06,SSW,211,10.0,14.0,94,0.00,,OVC055,0.00,VWS V13.01,2013-11-26 05:09:00,
2013-11-26 00:14:00,31.0,29.5,30.06,SW,220,12.0,15.0,94,0.00,,OVC055,0.00,VWS V13.01,2013-11-26 05:14:00,
2013-11-26 00:19:00,31.1,29.6,30.06,SW,215,13.0,15.0,94,0.00,,OVC055,0.00,VWS V13.01,2013-11-26 05:19:00,
2013-11-26 00:24:00,31.0,29.5,30.06,SSW,212,10.0,15.0,94,0.00,,OVC055,0.00,VWS V13.01,2013-11-26 05:24:00,
2013-11-26 00:29:00,31.1,29.6,30.06,SW,223,11.0,14.0,94,0.00,,OVC055,0.00,VWS V13.01,2013-11-26 05:29:00,
2013-11-26 00:34:00,31.0,29.5,30.06,SW,228,11.0,14.0,94,0.00,,OVC055,0.00,VWS V13.01,2013-11-26 05:34:00,
2013-11-26 00:39:00,31.1,29.6,30.06,SW,231,13.0,14.0,94,0.00,,OVC055,0.00,VWS V13.01,2013-11-26 05:39:00,
2013-11-26 00:45:00,31.1,29.6,30.06,SSW,210,10.0,14.0,94,0.00,,OVC055,0.00,VWS V13.01,2013-11-26 05:45:00,
2013-11-26 00:50:00,31.1,29.6,30.06,WSW,240,12.0,14.0,94,0.00,,OVC055,0.00,VWS V13.01,2013-11-26 05:50:00,
2013-11-26 00:55:00,31.1,29.6,30.06,SW,220,12.0,12.0,94,0.00,,OVC055,0.00,VWS V13.01,2013-11-26 05:55:00,
2013-11-26 01:00:00,31.1,29.6,30.06,WSW,241,10.0,13.0,94,0.00,,OVC055,0.00,VWS V13.01,2013-11-26 06:00:00,
2013-11-26 01:05:00,31.2,29.7,30.06,SW,236,12.0,14.0,94,0.00,,OVC060,0.00,VWS V13.01,2013-11-26 06:05:00,
2013-11-26 01:10:00,31.1,29.6,30.06,SW,233,11.0,14.0,94,0.00,,OVC060,0.00,VWS V13.01,2013-11-26 06:10:00,
2013-11-26 01:15:00,31.1,29.3,30.06,WSW,240,11.0,15.0,93,0.00,,OVC060,0.00,VWS V13.01,2013-11-26 06:15:00,
2013-11-26 01:20:00,31.2,29.7,30.06,SW,236,11.0,14.0,94,0.00,,OVC060,0.00,VWS V13.01,2013-11-26 06:20:00,
2013-11-26 01:25:00,31.2,29.4,30.05,WSW,247,8.0,14.0,93,0.00,,OVC060,0.00,VWS V13.01,2013-11-26 06:25:00,
2013-11-26 01:30:00,31.2,29.4,30.05,SW,228,9.0,14.0,93,0.00,,OVC060,0.00,VWS V13.01,2013-11-26 06:30:00,
2013-11-26 01:35:00,31.2,29.7,30.05,WSW,237,13.0,13.0,94,0.00,,OVC060,0.00,VWS V13.01,2013-11-26 06:35:00,
2013-11-26 01:40:00,31.2,29.4,30.05,WSW,243,10.0,14.0,93,0.00,,OVC060,0.00,VWS V13.01,2013-11-26 06:40:00,
2013-11-26 01:45:00,31.3,29.5,30.05,SW,232,13.0,13.0,93,0.00,,OVC060,0.00,VWS V13.01,2013-11-26 06:45:00,
2013-11-26 01:50:00,31.4,29.6,30.05,WSW,238,14.0,14.0,93,0.00,,OVC060,0.00,VWS V13.01,2013-11-26 06:50:00,
2013-11-26 01:55:00,31.4,29.6,30.05,SW,232,9.0,13.0,93,0.00,,OVC060,0.00,VWS V13.01,2013-11-26 06:55:00,
2013-11-26 02:00:00,31.3,29.5,30.05,SW,229,10.0,14.0,93,0.00,,OVC060,0.00,VWS V13.01,2013-11-26 07:00:00,
2013-11-26 02:05:00,31.4,29.6,30.05,SW,229,11.0,12.0,93,0.00,,OVC060,0.00,VWS V13.01,2013-11-26 07:05:00,
2013-11-26 02:10:00,31.4,29.6,30.05,SW,221,10.0,12.0,93,0.00,,OVC060,0.00,VWS V13.01,2013-11-26 07:10:00,
2013-11-26 02:15:00,31.3,29.5,30.05,WSW,244,9.0,12.0,93,0.00,,OVC060,0.00,VWS V13.01,2013-11-26 07:15:00,
2013-11-26 02:20:00,31.3,29.5,30.05,SW,234,10.0,11.0,93,0.00,,OVC060,0.00,VWS V13.01,2013-11-26 07:20:00,
2013-11-26 02:25:00,31.3,29.5,30.05,WSW,247,9.0,11.0,93,0.00,,OVC060,0.00,VWS V13.01,2013-11-26 07:25:00,
2013-11-26 02:30:00,31.3,29.5,30.06,SW,235,11.0,12.0,93,0.00,,OVC060,0.00,VWS V13.01,2013-11-26 07:30:00,
2013-11-26 02:35:00,31.3,29.5,30.06,WSW,241,11.0,12.0,93,0.00,,OVC060,0.00,VWS V13.01,2013-11-26 07:35:00,
2013-11-26 02:40:00,31.3,29.5,30.06,WSW,241,8.0,13.0,93,0.00,,OVC060,0.00,VWS V13.01,2013-11-26 07:40:00,
2013-11-26 02:45:00,31.3,29.5,30.05,SW,226,10.0,14.0,93,0.00,,OVC060,0.00,VWS V13.01,2013-11-26 07:45:00,
2013-11-26 02:50:00,31.4,29.6,30.06,SW,234,11.0,13.0,93,0.00,,OVC060,0.00,VWS V13.01,2013-11-26 07:50:00,
2013-11-26 02:55:00,31.4,29.6,30.06,SW,223,9.0,13.0,93,0.00,,OVC060,0.00,VWS V13.01,2013-11-26 07:55:00,
2013-11-26 03:00:00,31.5,29.7,30.05,SW,236,9.0,13.0,93,0.00,,OVC060,0.00,VWS V13.01,2013-11-26 08:00:00,
2013-11-26 03:05:00,31.5,29.7,30.05,SW,229,11.0,13.0,93,0.00,,OVC050,0.00,VWS V13.01,2013-11-26 08:05:00,
2013-11-26 03:10:00,31.5,29.7,30.05,SW,225,9.0,14.0,93,0.00,,OVC050,0.00,VWS V13.01,2013-11-26 08:10:00,
2013-11-26 03:15:00,31.5,29.7,30.05,SW,224,13.0,14.0,93,0.00,,OVC050,0.00,VWS V13.01,2013-11-26 08:15:00,
2013-11-26 03:20:00,31.6,29.8,30.05,SW,232,11.0,14.0,93,0.00,,OVC050,0.00,VWS V13.01,2013-11-26 08:20:00,
2013-11-26 03:25:00,31.6,29.8,30.05,SW,217,10.0,14.0,93,0.00,,OVC050,0.00,VWS V13.01,2013-11-26 08:25:00,
2013-11-26 03:30:00,31.6,29.8,30.05,SW,227,9.0,15.0,93,0.00,,OVC050,0.00,VWS V13.01,2013-11-26 08:30:00,
2013-11-26 03:35:00,31.6,29.8,30.05,SSW,210,11.0,14.0,93,0.00,,OVC050,0.00,VWS V13.01,2013-11-26 08:35:00,
2013-11-26 03:40:00,31.7,29.9,30.05,SW,227,12.0,13.0,93,0.00,,OVC050,0.00,VWS V13.01,2013-11-26 08:40:00,
2013-11-26 03:45:00,31.6,29.8,30.05,SW,230,14.0,16.0,93,0.00,,OVC050,0.00,VWS V13.01,2013-11-26 08:45:00,
2013-11-26 03:50:00,31.7,29.9,30.05,WSW,237,10.0,14.0,93,0.00,,OVC050,0.00,VWS V13.01,2013-11-26 08:50:00,
2013-11-26 03:55:00,31.7,29.9,30.05,SW,230,12.0,14.0,93,0.00,,OVC050,0.00,VWS V13.01,2013-11-26 08:55:00,
2013-11-26 04:00:00,31.7,29.6,30.06,WSW,238,13.0,14.0,92,0.00,,OVC048,0.00,VWS V13.01,2013-11-26 09:00:00,
2013-11-26 04:05:00,31.8,30.0,30.06,SW,236,11.0,14.0,93,0.00,,OVC048,0.00,VWS V13.01,2013-11-26 09:05:00,
2013-11-26 04:10:00,31.8,29.8,30.06,SW,227,9.0,14.0,92,0.00,,OVC048,0.00,VWS V13.01,2013-11-26 09:10:00,
2013-11-26 04:15:00,31.8,29.8,30.06,SW,217,12.0,15.0,92,0.00,,OVC048,0.00,VWS V13.01,2013-11-26 09:15:00,
2013-11-26 04:20:00,31.8,29.8,30.06,SW,217,10.0,13.0,92,0.00,,OVC048,0.00,VWS V13.01,2013-11-26 09:20:00,
2013-11-26 04:25:00,31.8,29.8,30.05,WSW,240,10.0,14.0,92,0.00,,OVC048,0.00,VWS V13.01,2013-11-26 09:25:00,
2013-11-26 04:30:00,31.9,29.8,30.05,SW,236,10.0,15.0,92,0.00,,OVC048,0.00,VWS V13.01,2013-11-26 09:30:00,
2013-11-26 04:35:00,31.8,29.8,30.05,WSW,239,10.0,13.0,92,0.00,,OVC048,0.00,VWS V13.01,2013-11-26 09:35:00,
2013-11-26 04:40:00,31.8,29.8,30.05,WSW,237,11.0,14.0,92,0.00,,OVC048,0.00,VWS V13.01,2013-11-26 09:40:00,
2013-11-26 04:45:00,31.8,29.8,30.06,SW,228,10.0,14.0,92,0.00,,OVC048,0.00,VWS V13.01,2013-11-26 09:45:00,
2013-11-26 04:50:00,31.9,29.8,30.06,SW,233,9.0,13.0,92,0.00,,OVC048,0.00,VWS V13.01,2013-11-26 09:50:00,
2013-11-26 04:55:00,31.9,29.8,30.06,SW,223,11.0,13.0,92,0.00,,OVC048,0.00,VWS V13.01,2013-11-26 09:55:00,
2013-11-26 05:01:00,32.0,29.9,30.06,WSW,238,10.0,13.0,92,0.00,,OVC046,0.00,VWS V13.01,2013-11-26 10:01:00,
2013-11-26 05:06:00,32.0,29.9,30.06,SW,226,11.0,13.0,92,0.00,,OVC046,0.00,VWS V13.01,2013-11-26 10:06:00,
2013-11-26 05:11:00,32.0,29.9,30.06,SW,216,11.0,15.0,92,0.00,,OVC046,0.00,VWS V13.01,2013-11-26 10:11:00,
2013-11-26 05:16:00,32.0,29.9,30.06,SW,232,11.0,14.0,92,0.00,,OVC046,0.00,VWS V13.01,2013-11-26 10:16:00,
2013-11-26 05:21:00,32.0,29.9,30.07,SW,218,8.0,14.0,92,0.00,,OVC046,0.00,VWS V13.01,2013-11-26 10:21:00,
2013-11-26 05:26:00,31.9,29.8,30.07,SW,222,11.0,15.0,92,0.00,,OVC046,0.00,VWS V13.01,2013-11-26 10:26:00,
2013-11-26 05:31:00,31.9,29.8,30.07,SW,225,10.0,14.0,92,0.00,,OVC046,0.00,VWS V13.01,2013-11-26 10:31:00,
2013-11-26 05:36:00,32.0,30.2,30.07,WSW,244,12.0,14.0,93,0.00,,OVC046,0.00,VWS V13.01,2013-11-26 10:36:00,
2013-11-26 05:41:00,31.9,30.1,30.07,SW,224,13.0,14.0,93,0.00,,OVC046,0.00,VWS V13.01,2013-11-26 10:41:00,
2013-11-26 05:46:00,31.9,30.1,30.06,SW,230,9.0,14.0,93,0.00,,OVC046,0.00,VWS V13.01,2013-11-26 10:46:00,
2013-11-26 05:51:00,31.9,29.8,30.05,SW,232,12.0,16.0,92,0.00,,OVC046,0.00,VWS V13.01,2013-11-26 10:51:00,
2013-11-26 05:56:00,31.9,30.1,30.04,WSW,238,14.0,17.0,93,0.00,,OVC046,0.00,VWS V13.01,2013-11-26 10:56:00,
2013-11-26 06:01:00,31.9,30.1,30.04,SW,228,13.0,16.0,93,0.00,,OVC050,0.00,VWS V13.01,2013-11-26 11:01:00,
2013-11-26 06:06:00,32.0,30.2,30.03,SW,236,16.0,16.0,93,0.00,,OVC050,0.00,VWS V13.01,2013-11-26 11:06:00,
2013-11-26 06:11:00,31.9,30.1,30.03,SW,229,12.0,16.0,93,0.00,,OVC050,0.00,VWS V13.01,2013-11-26 11:11:00,
2013-11-26 06:16:00,32.0,30.2,30.03,SW,218,11.0,13.0,93,0.00,,OVC050,0.00,VWS V13.01,2013-11-26 11:16:00,
2013-11-26 06:21:00,31.9,30.1,30.03,SW,225,8.0,14.0,93,0.00,,OVC050,0.00,VWS V13.01,2013-11-26 11:21:00,
2013-11-26 06:26:00,31.9,30.1,30.03,SW,232,12.0,16.0,93,0.00,,OVC050,0.00,VWS V13.01,2013-11-26 11:26:00,
2013-11-26 06:31:00,31.9,30.1,30.02,SW,216,13.0,14.0,93,0.00,,OVC050,0.00,VWS V13.01,2013-11-26 11:31:00,
2013-11-26 06:36:00,31.9,30.1,30.02,SW,232,12.0,16.0,93,0.00,,OVC050,0.00,VWS V13.01,2013-11-26 11:36:00,
2013-11-26 06:41:00,31.8,30.0,30.02,SW,225,9.0,13.0,93,0.00,,OVC050,0.00,VWS V13.01,2013-11-26 11:41:00,
2013-11-26 06:46:00,31.8,30.0,30.03,SW,223,11.0,14.0,93,0.00,,OVC050,0.00,VWS V13.01,2013-11-26 11:46:00,
2013-11-26 06:51:00,31.8,30.0,30.03,WSW,245,8.0,15.0,93,0.00,,OVC050,0.00,VWS V13.01,2013-11-26 11:51:00,
2013-11-26 06:56:00,31.8,30.0,30.02,SW,227,9.0,11.0,93,0.00,,OVC050,0.00,VWS V13.01,2013-11-26 11:56:00,
2013-11-26 07:01:00,31.8,30.0,30.02,SW,215,9.0,11.0,93,0.00,,OVC055,0.00,VWS V13.01,2013-11-26 12:01:00,
2013-11-26 07:06:00,31.8,30.0,30.02,SW,217,10.0,14.0,93,0.00,,OVC055,0.00,VWS V13.01,2013-11-26 12:06:00,
2013-11-26 07:11:00,31.9,30.1,30.03,SW,222,11.0,12.0,93,0.00,,OVC055,0.00,VWS V13.01,2013-11-26 12:11:00,
2013-11-26 07:16:00,31.9,30.1,30.03,SW,219,11.0,13.0,93,0.00,,OVC055,0.00,VWS V13.01,2013-11-26 12:16:00,
2013-11-26 07:21:00,31.8,30.0,30.03,SW,215,11.0,13.0,93,0.00,,OVC055,0.00,VWS V13.01,2013-11-26 12:21:00,
2013-11-26 07:26:00,31.8,30.0,30.03,SW,231,9.0,12.0,93,0.00,,OVC055,0.00,VWS V13.01,2013-11-26 12:26:00,
2013-11-26 07:31:00,31.7,29.9,30.03,SW,219,12.0,14.0,93,0.00,,OVC055,0.00,VWS V13.01,2013-11-26 12:31:00,
2013-11-26 07:36:00,31.7,29.9,30.02,SW,229,10.0,13.0,93,0.00,,OVC055,0.00,VWS V13.01,2013-11-26 12:36:00,
2013-11-26 07:41:00,31.7,29.9,30.03,SW,224,9.0,14.0,93,0.00,,OVC055,0.00,VWS V13.01,2013-11-26 12:41:00,
2013-11-26 07:46:00,31.7,29.9,30.03,SW,223,12.0,14.0,93,0.00,,OVC055,0.00,VWS V13.01,2013-11-26 12:46:00,
2013-11-26 07:51:00,31.7,29.9,30.03,SW,226,11.0,13.0,93,0.00,,OVC055,0.00,VWS V13.01,2013-11-26 12:51:00,
2013-11-26 07:56:00,31.7,29.9,30.03,SW,226,11.0,12.0,93,0.00,,OVC055,0.00,VWS V13.01,2013-11-26 12:56:00,
2013-11-26 08:01:00,31.7,29.9,30.03,SW,227,10.0,12.0,93,0.00,,OVC060,0.00,VWS V13.01,2013-11-26 13:01:00,
2013-11-26 08:06:00,31.7,29.9,30.03,SSW,213,10.0,13.0,93,0.00,,OVC060,0.00,VWS V13.01,2013-11-26 13:06:00,
2013-11-26 08:11:00,31.7,29.9,30.03,SW,214,11.0,13.0,93,0.00,,OVC060,0.00,VWS V13.01,2013-11-26 13:11:00,
2013-11-26 08:16:00,31.7,29.9,30.03,SW,229,8.0,14.0,93,0.00,,OVC060,0.00,VWS V13.01,2013-11-26 13:16:00,
2013-11-26 08:21:00,31.7,29.9,30.03,SW,217,10.0,13.0,93,0.00,,OVC060,0.00,VWS V13.01,2013-11-26 13:21:00,
2013-11-26 08:26:00,31.7,29.9,30.03,SW,221,7.0,11.0,93,0.00,,OVC060,0.00,VWS V13.01,2013-11-26 13:26:00,
2013-11-26 08:31:00,31.7,29.9,30.02,SW,236,11.0,11.0,93,0.00,,OVC060,0.00,VWS V13.01,2013-11-26 13:31:00,
2013-11-26 08:36:00,31.6,29.8,30.02,SW,236,8.0,11.0,93,0.00,,OVC060,0.00,VWS V13.01,2013-11-26 13:36:00,
2013-11-26 08:41:00,31.8,30.0,30.02,SW,224,9.0,11.0,93,0.00,,OVC060,0.00,VWS V13.01,2013-11-26 13:41:00,
2013-11-26 08:46:00,31.8,30.0,30.02,SW,234,8.0,11.0,93,0.00,,OVC060,0.00,VWS V13.01,2013-11-26 13:46:00,
2013-11-26 08:51:00,31.7,29.9,30.02,WSW,244,10.0,12.0,93,0.00,,OVC060,0.00,VWS V13.01,2013-11-26 13:51:00,
2013-11-26 08:56:00,31.7,29.9,30.02,SW,231,9.0,11.0,93,0.00,,OVC060,0.00,VWS V13.01,2013-11-26 13:56:00,
2013-11-26 09:01:00,31.7,29.9,30.02,SSW,213,7.0,10.0,93,0.00,,OVC060,0.00,VWS V13.01,2013-11-26 14:01:00,
2013-11-26 09:06:00,31.8,30.0,30.02,SW,226,10.0,12.0,93,0.00,,OVC060,0.00,VWS V13.01,2013-11-26 14:06:00,
2013-11-26 09:11:00,31.8,30.0,30.03,SW,234,8.0,11.0,93,0.00,,OVC060,0.00,VWS V13.01,2013-11-26 14:11:00,
2013-11-26 09:16:00,31.8,30.0,30.04,SW,219,11.0,11.0,93,0.00,,OVC060,0.00,VWS V13.01,2013-11-26 14:16:00,
2013-11-26 09:21:00,31.8,30.0,30.04,SW,223,7.0,11.0,93,0.00,,OVC060,0.00,VWS V13.01,2013-11-26 14:21:00,
2013-11-26 09:26:00,31.8,29.8,30.04,SW,223,10.0,12.0,92,0.00,,OVC060,0.00,VWS V13.01,2013-11-26 14:26:00,
2013-11-26 09:32:00,31.9,30.1,30.04,SSW,211,6.0,10.0,93,0.00,,OVC060,0.00,VWS V13.01,2013-11-26 14:32:00,
2013-11-26 09:37:00,31.8,30.0,30.04,SW,217,9.0,11.0,93,0.00,,OVC060,0.00,VWS V13.01,2013-11-26 14:37:00,
2013-11-26 09:42:00,31.8,29.8,30.04,SW,227,9.0,12.0,92,0.00,,OVC060,0.00,VWS V13.01,2013-11-26 14:42:00,
2013-11-26 09:47:00,31.8,29.8,30.04,SW,236,7.0,12.0,92,0.00,,OVC060,0.00,VWS V13.01,2013-11-26 14:47:00,
2013-11-26 09:52:00,31.7,29.6,30.03,SW,225,9.0,11.0,92,0.00,,OVC060,0.00,VWS V13.01,2013-11-26 14:52:00,
2013-11-26 09:57:00,31.9,30.1,30.04,SW,234,6.0,11.0,93,0.00,,OVC060,0.00,VWS V13.01,2013-11-26 14:57:00,
2013-11-26 10:02:00,31.9,30.1,30.03,SW,227,6.0,9.0,93,0.00,,OVC070,0.00,VWS V13.01,2013-11-26 15:02:00,
2013-11-26 10:07:00,32.0,30.2,30.03,SW,227,7.0,9.0,93,0.00,,OVC070,0.00,VWS V13.01,2013-11-26 15:07:00,
2013-11-26 10:12:00,31.9,29.8,30.03,SW,229,6.0,9.0,92,0.00,,OVC070,0.00,VWS V13.01,2013-11-26 15:12:00,
2013-11-26 10:17:00,31.9,29.8,30.03,SSW,207,7.0,9.0,92,0.00,,OVC070,0.00,VWS V13.01,2013-11-26 15:17:00,
2013-11-26 10:22:00,31.9,29.8,30.03,SW,215,8.0,10.0,92,0.00,,OVC070,0.00,VWS V13.01,2013-11-26 15:22:00,
2013-11-26 10:27:00,31.9,29.8,30.02,SW,227,6.0,10.0,92,0.00,,OVC070,0.00,VWS V13.01,2013-11-26 15:27:00,
2013-11-26 10:32:00,31.9,29.8,30.02,SW,220,8.0,8.0,92,0.00,,OVC070,0.00,VWS V13.01,2013-11-26 15:32:00,
2013-11-26 10:37:00,31.9,30.1,30.03,SW,219,7.0,10.0,93,0.00,,OVC070,0.00,VWS V13.01,2013-11-26 15:37:00,
2013-11-26 10:42:00,31.9,29.8,30.03,SW,219,6.0,8.0,92,0.00,,OVC070,0.00,VWS V13.01,2013-11-26 15:42:00,
2013-11-26 10:47:00,31.9,29.8,30.03,SSW,213,8.0,8.0,92,0.00,,OVC070,0.00,VWS V13.01,2013-11-26 15:47:00,
2013-11-26 10:52:00,31.9,29.8,30.03,SW,221,6.0,9.0,92,0.00,,OVC070,0.00,VWS V13.01,2013-11-26 15:52:00,
2013-11-26 10:57:00,31.9,30.1,30.03,SSW,200,7.0,9.0,93,0.00,,OVC070,0.00,VWS V13.01,2013-11-26 15:57:00,
2013-11-26 11:02:00,31.8,30.0,30.03,SSW,203,6.0,9.0,93,0.00,,OVC065,0.00,VWS V13.01,2013-11-26 16:02:00,
2013-11-26 11:07:00,31.8,30.0,30.03,SW,215,10.0,12.0,93,0.00,,OVC065,0.00,VWS V13.01,2013-11-26 16:07:00,
2013-11-26 11:12:00,31.8,30.0,30.02,SW,226,12.0,12.0,93,0.00,,OVC065,0.00,VWS V13.01,2013-11-26 16:12:00,
2013-11-26 11:17:00,31.7,29.9,30.02,SW,227,9.0,12.0,93,0.00,,OVC065,0.00,VWS V13.01,2013-11-26 16:17:00,
2013-11-26 11:22:00,31.7,29.9,30.02,SSW,210,8.0,11.0,93,0.00,,OVC065,0.00,VWS V13.01,2013-11-26 16:22:00,
2013-11-26 11:27:00,31.8,30.0,30.01,SW,226,7.0,9.0,93,0.00,,OVC065,0.00,VWS V13.01,2013-11-26 16:27:00,
2013-11-26 11:32:00,31.8,30.0,30.01,SW,222,6.0,8.0,93,0.00,,OVC065,0.00,VWS V13.01,2013-11-26 16:32:00,
2013-11-26 11:37:00,31.8,29.8,30.00,SW,234,7.0,9.0,92,0.00,,OVC065,0.00,VWS V13.01,2013-11-26 16:37:00,
2013-11-26 11:42:00,31.9,29.8,30.01,SW,224,9.0,10.0,92,0.00,,OVC065,0.00,VWS V13.01,2013-11-26 16:42:00,
2013-11-26 11:47:00,32.0,29.9,30.01,SSW,207,7.0,9.0,92,0.00,,OVC065,0.00,VWS V13.01,2013-11-26 16:47:00,
2013-11-26 11:52:00,32.0,29.9,30.01,SSW,211,6.0,8.0,92,0.00,,OVC065,0.00,VWS V13.01,2013-11-26 16:52:00,
2013-11-26 11:57:00,32.0,29.9,30.00,SW,226,6.0,9.0,92,0.00,,OVC065,0.00,VWS V13.01,2013-11-26 16:57:00,
2013-11-26 12:02:00,32.1,30.0,30.00,SW,225,6.0,8.0,92,0.00,,OVC070,0.00,VWS V13.01,2013-11-26 17:02:00,
2013-11-26 12:07:00,32.1,29.8,30.01,SW,225,6.0,9.0,91,0.00,,OVC070,0.00,VWS V13.01,2013-11-26 17:07:00,
2013-11-26 12:13:00,32.3,30.0,30.01,SSW,212,7.0,8.0,91,0.00,,OVC070,0.00,VWS V13.01,2013-11-26 17:13:00,
2013-11-26 12:18:00,32.3,30.0,30.00,SW,220,7.0,9.0,91,0.00,,OVC070,0.00,VWS V13.01,2013-11-26 17:18:00,
2013-11-26 12:23:00,32.4,30.3,30.00,SSW,197,7.0,8.0,92,0.00,,OVC070,0.00,VWS V13.01,2013-11-26 17:23:00,
2013-11-26 12:28:00,32.4,30.1,30.00,SSW,209,7.0,9.0,91,0.00,,OVC070,0.00,VWS V13.01,2013-11-26 17:28:00,
2013-11-26 12:33:00,32.5,30.4,30.00,SW,223,7.0,8.0,92,0.00,,OVC070,0.00,VWS V13.01,2013-11-26 17:33:00,
2013-11-26 12:38:00,32.6,30.3,29.99,SW,224,9.0,9.0,91,0.00,,OVC070,0.00,VWS V13.01,2013-11-26 17:38:00,
2013-11-26 12:43:00,32.7,30.4,29.99,SSW,205,7.0,10.0,91,0.00,,OVC070,0.00,VWS V13.01,2013-11-26 17:43:00,
2013-11-26 12:48:00,32.7,30.4,30.00,SW,215,8.0,10.0,91,0.00,,OVC070,0.00,VWS V13.01,2013-11-26 17:48:00,
2013-11-26 12:53:00,32.7,30.6,30.00,SW,218,9.0,12.0,92,0.00,,OVC070,0.00,VWS V13.01,2013-11-26 17:53:00,
2013-11-26 12:58:00,32.6,30.3,30.00,SSW,211,7.0,9.0,91,0.00,,OVC070,0.00,VWS V13.01,2013-11-26 17:58:00,
2013-11-26 13:03:00,32.6,30.3,30.00,SW,224,10.0,11.0,91,0.00,,,0.00,VWS V13.01,2013-11-26 18:03:00,
2013-11-26 13:08:00,32.6,30.3,30.00,SSW,209,7.0,10.0,91,0.00,,,0.00,VWS V13.01,2013-11-26 18:08:00,
2013-11-26 13:13:00,32.6,30.3,30.00,SW,219,8.0,10.0,91,0.00,,,0.00,VWS V13.01,2013-11-26 18:13:00,
2013-11-26 13:18:00,32.6,30.3,30.00,SW,226,11.0,13.0,91,0.00,,,0.00,VWS V13.01,2013-11-26 18:18:00,
2013-11-26 13:23:00,32.7,30.4,30.00,SW,225,8.0,11.0,91,0.00,,,0.00,VWS V13.01,2013-11-26 18:23:00,
2013-11-26 13:28:00,32.8,30.5,30.00,SSW,209,7.0,10.0,91,0.00,,,0.00,VWS V13.01,2013-11-26 18:28:00,
2013-11-26 13:33:00,32.9,30.6,29.99,SW,221,10.0,11.0,91,0.00,,,0.00,VWS V13.01,2013-11-26 18:33:00,
2013-11-26 13:38:00,32.9,30.6,29.99,SSW,212,8.0,11.0,91,0.00,,,0.00,VWS V13.01,2013-11-26 18:38:00,
2013-11-26 13:43:00,32.9,30.6,29.99,SW,219,8.0,13.0,91,0.00,,,0.00,VWS V13.01,2013-11-26 18:43:00,
2013-11-26 13:48:00,33.0,30.7,29.99,SSW,206,7.0,9.0,91,0.00,,,0.00,VWS V13.01,2013-11-26 18:48:00,
2013-11-26 13:53:00,33.0,30.7,29.99,SSW,204,7.0,9.0,91,0.00,,,0.00,VWS V13.01,2013-11-26 18:53:00,
2013-11-26 13:58:00,32.9,30.6,29.98,SW,215,11.0,11.0,91,0.00,,,0.00,VWS V13.01,2013-11-26 18:58:00,
2013-11-26 14:03:00,32.9,30.6,29.99,SSW,209,8.0,12.0,91,0.00,,,0.00,VWS V13.01,2013-11-26 19:03:00,
2013-11-26 14:08:00,32.9,30.6,29.98,SSW,198,10.0,13.0,91,0.00,,,0.00,VWS V13.01,2013-11-26 19:08:00,
2013-11-26 14:13:00,32.8,30.5,29.98,SW,221,10.0,12.0,91,0.00,,,0.00,VWS V13.01,2013-11-26 19:13:00,
2013-11-26 14:18:00,32.8,30.5,29.98,SW,218,7.0,12.0,91,0.00,,,0.00,VWS V13.01,2013-11-26 19:18:00,
2013-11-26 14:23:00,32.7,30.4,29.97,SW,215,7.0,11.0,91,0.00,,,0.00,VWS V13.01,2013-11-26 19:23:00,
2013-11-26 14:28:00,32.8,30.5,29.98,SSW,205,7.0,11.0,91,0.00,,,0.00,VWS V13.01,2013-11-26 19:28:00,
2013-11-26 14:34:00,32.8,30.5,29.98,SW,219,7.0,9.0,91,0.00,,,0.00,VWS V13.01,2013-11-26 19:34:00,
2013-11-26 14:39:00,32.7,30.4,29.97,SSW,211,7.0,9.0,91,0.00,,,0.00,VWS V13.01,2013-11-26 19:39:00,
2013-11-26 14:43:00,32.7,30.4,29.97,SSW,211,6.0,9.0,91,0.00,,,0.00,VWS V13.01,2013-11-26 19:43:00,
2013-11-26 14:49:00,32.8,30.5,29.97,SW,226,7.0,9.0,91,0.00,,,0.00,VWS V13.01,2013-11-26 19:49:00,
2013-11-26 14:54:00,32.8,30.5,29.97,SW,217,6.0,8.0,91,0.00,,,0.00,VWS V13.01,2013-11-26 19:54:00,
2013-11-26 14:59:00,32.8,30.5,29.96,SW,224,7.0,9.0,91,0.00,,,0.00,VWS V13.01,2013-11-26 19:59:00,
2013-11-26 15:04:00,32.8,30.5,29.96,SW,233,6.0,9.0,91,0.00,,,0.00,VWS V13.01,2013-11-26 20:04:00,
2013-11-26 15:09:00,32.9,30.6,29.97,SW,221,6.0,7.0,91,0.00,,,0.00,VWS V13.01,2013-11-26 20:09:00,
2013-11-26 15:14:00,32.9,30.6,29.96,SW,220,6.0,8.0,91,0.00,,,0.00,VWS V13.01,2013-11-26 20:14:00,
2013-11-26 15:19:00,33.0,30.7,29.96,SW,227,7.0,8.0,91,0.00,,,0.00,VWS V13.01,2013-11-26 20:19:00,
2013-11-26 15:24:00,33.1,30.5,29.96,SW,236,7.0,8.0,90,0.00,,,0.00,VWS V13.01,2013-11-26 20:24:00,
2013-11-26 15:29:00,33.2,30.6,29.96,WSW,248,7.0,9.0,90,0.00,,,0.00,VWS V13.01,2013-11-26 20:29:00,
2013-11-26 15:34:00,33.2,30.6,29.95,SW,227,4.0,9.0,90,0.00,,,0.00,VWS V13.01,2013-11-26 20:34:00,
2013-11-26 15:39:00,33.2,30.3,29.95,SW,234,5.0,7.0,89,0.00,,,0.00,VWS V13.01,2013-11-26 20:39:00,
2013-11-26 15:44:00,33.2,30.6,29.96,SW,225,6.0,7.0,90,0.00,,,0.00,VWS V13.01,2013-11-26 20:44:00,
2013-11-26 15:49:00,33.3,30.7,29.95,WSW,240,6.0,7.0,90,0.00,,,0.00,VWS V13.01,2013-11-26 20:49:00,
2013-11-26 15:54:00,33.3,30.4,29.95,WSW,238,6.0,8.0,89,0.00,,,0.00,VWS V13.01,2013-11-26 20:54:00,
2013-11-26 15:59:00,33.4,30.5,29.95,SW,229,7.0,10.0,89,0.00,,,0.00,VWS V13.01,2013-11-26 20:59:00,
2013-11-26 16:04:00,33.4,30.2,29.96,WSW,246,6.0,7.0,88,0.00,,,0.00,VWS V13.01,2013-11-26 21:04:00,
2013-11-26 16:09:00,33.3,30.1,29.95,WSW,250,8.0,8.0,88,0.00,,,0.00,VWS V13.01,2013-11-26 21:09:00,
2013-11-26 16:14:00,33.3,30.4,29.95,WSW,243,8.0,9.0,89,0.00,,,0.00,VWS V13.01,2013-11-26 21:14:00,
2013-11-26 16:19:00,33.3,30.4,29.96,SW,236,7.0,9.0,89,0.00,,,0.00,VWS V13.01,2013-11-26 21:19:00,
2013-11-26 16:24:00,33.3,30.4,29.95,SW,226,6.0,9.0,89,0.00,,,0.00,VWS V13.01,2013-11-26 21:24:00,
2013-11-26 16:29:00,33.3,30.4,29.95,WSW,245,6.0,10.0,89,0.00,,,0.00,VWS V13.01,2013-11-26 21:29:00,
2013-11-26 16:34:00,33.2,30.3,29.95,WSW,243,6.0,8.0,89,0.00,,,0.00,VWS V13.01,2013-11-26 21:34:00,
2013-11-26 16:39:00,33.2,30.3,29.95,SW,226,6.0,8.0,89,0.00,,,0.00,VWS V13.01,2013-11-26 21:39:00,
2013-11-26 16:44:00,33.2,30.3,29.95,SW,234,6.0,9.0,89,0.00,,,0.00,VWS V13.01,2013-11-26 21:44:00,
2013-11-26 16:49:00,33.2,30.3,29.96,SW,227,7.0,8.0,89,0.00,,,0.00,VWS V13.01,2013-11-26 21:49:00,
2013-11-26 16:54:00,33.3,30.7,29.96,SSW,211,7.0,8.0,90,0.00,,,0.00,VWS V13.01,2013-11-26 21:54:00,
2013-11-26 16:59:00,33.2,30.3,29.96,SW,214,6.0,10.0,89,0.00,,,0.00,VWS V13.01,2013-11-26 21:59:00,
2013-11-26 17:04:00,33.2,30.3,29.96,SW,225,6.0,8.0,89,0.00,,OVC029,0.00,VWS V13.01,2013-11-26 22:04:00,
2013-11-26 17:09:00,33.2,30.6,29.96,SW,220,7.0,9.0,90,0.00,,OVC029,0.00,VWS V13.01,2013-11-26 22:09:00,
2013-11-26 17:14:00,33.1,30.5,29.96,SW,233,9.0,9.0,90,0.00,,OVC029,0.00,VWS V13.01,2013-11-26 22:14:00,
2013-11-26 17:19:00,33.1,30.5,29.96,SW,219,8.0,9.0,90,0.00,,OVC029,0.00,VWS V13.01,2013-11-26 22:19:00,
2013-11-26 17:24:00,33.1,30.5,29.97,SW,229,7.0,9.0,90,0.00,,OVC029,0.00,VWS V13.01,2013-11-26 22:24:00,
2013-11-26 17:29:00,33.0,30.4,29.96,SW,224,7.0,9.0,90,0.00,,OVC029,0.00,VWS V13.01,2013-11-26 22:29:00,
2013-11-26 17:34:00,32.9,30.3,29.96,WSW,240,7.0,8.0,90,0.00,,OVC029,0.00,VWS V13.01,2013-11-26 22:34:00,
2013-11-26 17:39:00,32.9,30.0,29.97,SW,232,7.0,9.0,89,0.00,,OVC029,0.00,VWS V13.01,2013-11-26 22:39:00,
2013-11-26 17:44:00,32.8,30.2,29.96,SW,236,6.0,9.0,90,0.00,,OVC029,0.00,VWS V13.01,2013-11-26 22:44:00,
2013-11-26 17:49:00,32.8,30.2,29.96,WSW,240,6.0,8.0,90,0.00,,OVC029,0.00,VWS V13.01,2013-11-26 22:49:00,
2013-11-26 17:54:00,32.7,30.1,29.96,WSW,248,5.0,7.0,90,0.00,,OVC029,0.00,VWS V13.01,2013-11-26 22:54:00,
2013-11-26 17:59:00,32.7,30.1,29.96,WSW,248,5.0,6.0,90,0.00,,OVC029,0.00,VWS V13.01,2013-11-26 22:59:00,
2013-11-26 18:04:00,32.7,30.1,29.96,SW,236,4.0,5.0,90,0.00,,,0.00,VWS V13.01,2013-11-26 23:04:00,
2013-11-26 18:09:00,32.6,30.0,29.96,WSW,252,3.0,5.0,90,0.00,,,0.00,VWS V13.01,2013-11-26 23:09:00,
2013-11-26 18:14:00,32.6,30.0,29.96,West,276,3.0,5.0,90,0.00,,,0.00,VWS V13.01,2013-11-26 23:14:00,
2013-11-26 18:19:00,32.5,29.9,29.96,West,276,1.0,4.0,90,0.00,,,0.00,VWS V13.01,2013-11-26 23:19:00,
2013-11-26 18:24:00,32.4,29.8,29.96,West,276,1.0,4.0,90,0.00,,,0.00,VWS V13.01,2013-11-26 23:24:00,
2013-11-26 18:29:00,32.4,29.8,29.96,West,276,2.0,4.0,90,0.00,,,0.00,VWS V13.01,2013-11-26 23:29:00,
2013-11-26 18:34:00,32.4,29.8,29.96,West,276,1.0,3.0,90,0.00,,,0.00,VWS V13.01,2013-11-26 23:34:00,
2013-11-26 18:39:00,32.3,29.7,29.96,West,275,4.0,5.0,90,0.00,,,0.00,VWS V13.01,2013-11-26 23:39:00,
2013-11-26 18:44:00,32.3,29.7,29.96,West,273,3.0,5.0,90,0.00,,,0.00,VWS V13.01,2013-11-26 23:44:00,
2013-11-26 18:49:00,32.3,29.7,29.97,West,271,3.0,5.0,90,0.00,,,0.00,VWS V13.01,2013-11-26 23:49:00,
2013-11-26 18:54:00,32.2,29.9,29.97,West,272,3.0,4.0,91,0.00,,,0.00,VWS V13.01,2013-11-26 23:54:00,
2013-11-26 18:59:00,32.1,29.8,29.97,West,273,1.0,5.0,91,0.00,,,0.00,VWS V13.01,2013-11-26 23:59:00,
2013-11-26 19:04:00,32.1,29.8,29.97,West,273,1.0,3.0,91,0.00,,,0.00,VWS V13.01,2013-11-27 00:04:00,
2013-11-26 19:09:00,32.0,29.7,29.97,NW,309,2.0,6.0,91,0.00,,,0.00,VWS V13.01,2013-11-27 00:09:00,
2013-11-26 19:14:00,31.6,29.0,29.97,NW,316,0.0,6.0,90,0.00,,,0.00,VWS V13.01,2013-11-27 00:14:00,
2013-11-26 19:19:00,31.2,28.6,29.97,NNW,330,2.0,7.0,90,0.00,,,0.00,VWS V13.01,2013-11-27 00:19:00,
2013-11-26 19:24:00,31.1,28.5,29.97,NNW,331,1.0,4.0,90,0.00,,,0.00,VWS V13.01,2013-11-27 00:24:00,
2013-11-26 19:30:00,30.9,28.3,29.98,North,360,3.0,6.0,90,0.00,,,0.00,VWS V13.01,2013-11-27 00:30:00,
2013-11-26 19:35:00,30.8,28.2,29.98,North,350,1.0,6.0,90,0.00,,,0.00,VWS V13.01,2013-11-27 00:35:00,
2013-11-26 19:40:00,30.8,28.0,29.98,North,355,3.0,5.0,89,0.00,,,0.00,VWS V13.01,2013-11-27 00:40:00,
2013-11-26 19:45:00,30.7,27.9,29.98,North,5,2.0,8.0,89,0.00,,,0.00,VWS V13.01,2013-11-27 00:45:00,
2013-11-26 19:50:00,30.5,27.4,29.98,North,11,4.0,7.0,88,0.00,,,0.00,VWS V13.01,2013-11-27 00:50:00,
2013-11-26 19:55:00,30.2,26.8,29.98,North,360,0.0,8.0,87,0.00,,,0.00,VWS V13.01,2013-11-27 00:55:00,
2013-11-26 20:00:00,30.1,26.4,29.98,NNW,333,2.0,5.0,86,0.00,,,0.00,VWS V13.01,2013-11-27 01:00:00,
2013-11-26 20:05:00,30.0,26.6,29.99,North,349,5.0,7.0,87,0.00,,,0.00,VWS V13.01,2013-11-27 01:05:00,
2013-11-26 20:10:00,29.8,26.1,29.99,NNE,30,6.0,12.0,86,0.00,,,0.00,VWS V13.01,2013-11-27 01:10:00,
2013-11-26 20:15:00,29.6,25.6,29.98,NNW,329,3.0,10.0,85,0.00,,,0.00,VWS V13.01,2013-11-27 01:15:00,
2013-11-26 20:20:00,29.4,25.7,29.99,NNW,340,3.0,11.0,86,0.00,,,0.00,VWS V13.01,2013-11-27 01:20:00,
2013-11-26 20:25:00,29.3,25.6,29.99,NNW,331,2.0,8.0,86,0.00,,,0.00,VWS V13.01,2013-11-27 01:25:00,
2013-11-26 20:30:00,29.2,25.5,29.99,NNW,333,4.0,9.0,86,0.00,,,0.00,VWS V13.01,2013-11-27 01:30:00,
2013-11-26 20:35:00,29.1,25.4,29.99,NNW,327,5.0,7.0,86,0.00,,,0.00,VWS V13.01,2013-11-27 01:35:00,
2013-11-26 20:40:00,29.0,25.4,29.99,NNE,30,0.0,7.0,86,0.00,,,0.00,VWS V13.01,2013-11-27 01:40:00,
2013-11-26 20:45:00,28.9,25.2,29.98,NNW,332,2.0,8.0,86,0.00,,,0.00,VWS V13.01,2013-11-27 01:45:00,
2013-11-26 20:50:00,28.8,25.1,29.98,NW,323,0.0,9.0,86,0.00,,,0.00,VWS V13.01,2013-11-27 01:50:00,
2013-11-26 20:55:00,28.7,25.0,29.99,NNW,331,3.0,8.0,86,0.00,,,0.00,VWS V13.01,2013-11-27 01:55:00,
2013-11-26 21:00:00,28.5,24.9,29.98,NNW,333,7.0,7.0,86,0.00,,,0.00,VWS V13.01,2013-11-27 02:00:00,
2013-11-26 21:05:00,28.3,24.7,29.99,NNW,328,7.0,10.0,86,0.00,,OVC027,0.00,VWS V13.01,2013-11-27 02:05:00,
2013-11-26 21:10:00,28.1,24.5,29.99,NW,316,7.0,8.0,86,0.00,,OVC027,0.00,VWS V13.01,2013-11-27 02:10:00,
2013-11-26 21:15:00,27.9,24.0,29.98,North,355,5.0,10.0,85,0.00,,OVC027,0.00,VWS V13.01,2013-11-27 02:15:00,
2013-11-26 21:20:00,27.8,23.9,29.99,NNW,331,5.0,12.0,85,0.00,,OVC027,0.00,VWS V13.01,2013-11-27 02:20:00,
2013-11-26 21:25:00,27.7,24.1,29.99,NW,315,4.0,10.0,86,0.00,,OVC027,0.00,VWS V13.01,2013-11-27 02:25:00,
2013-11-26 21:30:00,27.6,24.0,29.99,NW,304,6.0,8.0,86,0.00,,OVC027,0.00,VWS V13.01,2013-11-27 02:30:00,
2013-11-26 21:35:00,27.6,24.2,29.99,North,360,4.0,10.0,87,0.00,,OVC027,0.00,VWS V13.01,2013-11-27 02:35:00,
2013-11-26 21:40:00,27.5,24.4,29.99,NNW,333,2.0,8.0,88,0.00,,OVC027,0.00,VWS V13.01,2013-11-27 02:40:00,
2013-11-26 21:45:00,27.4,24.3,29.99,NNW,333,7.0,9.0,88,0.00,,OVC027,0.00,VWS V13.01,2013-11-27 02:45:00,
2013-11-26 21:50:00,27.1,24.0,29.99,NNW,329,4.0,13.0,88,0.00,,OVC027,0.00,VWS V13.01,2013-11-27 02:50:00,
2013-11-26 21:55:00,26.9,23.8,29.99,NW,326,5.0,11.0,88,0.00,,OVC027,0.00,VWS V13.01,2013-11-27 02:55:00,
2013-11-26 22:00:00,26.7,23.6,29.99,NNW,327,5.0,10.0,88,0.00,,OVC027,0.00,VWS V13.01,2013-11-27 03:00:00,
2013-11-26 22:05:00,26.6,23.5,30.00,NW,309,3.0,10.0,88,0.00,,,0.00,VWS V13.01,2013-11-27 03:05:00,
2013-11-26 22:10:00,26.6,23.5,30.00,North,355,5.0,9.0,88,0.00,,,0.00,VWS V13.01,2013-11-27 03:10:00,
2013-11-26 22:15:00,26.5,23.4,30.00,NW,311,2.0,8.0,88,0.00,,,0.00,VWS V13.01,2013-11-27 03:15:00,
2013-11-26 22:20:00,26.5,23.2,30.00,NNW,327,6.0,11.0,87,0.00,,,0.00,VWS V13.01,2013-11-27 03:20:00,
2013-11-26 22:25:00,26.4,23.1,30.00,NW,325,8.0,12.0,87,0.00,,,0.00,VWS V13.01,2013-11-27 03:25:00,
2013-11-26 22:30:00,26.3,23.0,30.00,NW,316,9.0,11.0,87,0.00,,,0.00,VWS V13.01,2013-11-27 03:30:00,
2013-11-26 22:35:00,26.2,22.9,30.00,NNW,336,4.0,11.0,87,0.00,,,0.00,VWS V13.01,2013-11-27 03:35:00,
2013-11-26 22:40:00,26.2,22.9,30.00,NNW,342,6.0,12.0,87,0.00,,,0.00,VWS V13.01,2013-11-27 03:40:00,
2013-11-26 22:45:00,26.1,22.8,30.00,WNW,303,3.0,8.0,87,0.00,,,0.00,VWS V13.01,2013-11-27 03:45:00,
2013-11-26 22:50:00,26.1,22.8,30.00,NW,315,6.0,11.0,87,0.00,,,0.00,VWS V13.01,2013-11-27 03:50:00,
2013-11-26 22:55:00,25.9,22.8,30.00,North,10,4.0,10.0,88,0.00,,,0.00,VWS V13.01,2013-11-27 03:55:00,
2013-11-26 23:00:00,25.8,22.7,30.00,North,355,5.0,9.0,88,0.00,,,0.00,VWS V13.01,2013-11-27 04:00:00,
2013-11-26 23:05:00,25.8,22.7,30.00,NW,321,4.0,9.0,88,0.00,,,0.00,VWS V13.01,2013-11-27 04:05:00,
2013-11-26 23:10:00,25.7,22.6,30.01,NNW,331,4.0,11.0,88,0.00,,,0.00,VWS V13.01,2013-11-27 04:10:00,
2013-11-26 23:15:00,25.6,22.8,30.01,NNW,327,8.0,11.0,89,0.00,,,0.00,VWS V13.01,2013-11-27 04:15:00,
2013-11-26 23:20:00,25.3,22.5,30.01,NW,319,2.0,10.0,89,0.00,,,0.00,VWS V13.01,2013-11-27 04:20:00,
2013-11-26 23:25:00,25.2,22.7,30.01,NW,326,6.0,8.0,90,0.00,,,0.00,VWS V13.01,2013-11-27 04:25:00,
2013-11-26 23:30:00,25.0,22.2,30.01,NNW,340,8.0,13.0,89,0.00,,,0.00,VWS V13.01,2013-11-27 04:30:00,
2013-11-26 23:35:00,24.9,21.9,30.01,East,100,2.0,13.0,88,0.00,,,0.00,VWS V13.01,2013-11-27 04:35:00,
2013-11-26 23:40:00,24.9,21.6,30.01,NW,326,7.0,12.0,87,0.00,,,0.00,VWS V13.01,2013-11-27 04:40:00,
2013-11-26 23:45:00,24.8,21.2,30.01,NW,304,5.0,12.0,86,0.00,,,0.00,VWS V13.01,2013-11-27 04:45:00,
2013-11-26 23:50:00,24.5,20.6,30.01,NNW,331,5.0,14.0,85,0.00,,,0.00,VWS V13.01,2013-11-27 04:50:00,
2013-11-26 23:55:00,24.4,20.5,30.02,NNW,338,3.0,11.0,85,0.00,,,0.00,VWS V13.01,2013-11-27 04:55:00,